Weather History for KMQY - October, 2011

Change the Weather History Date:

Monday, October 17, 2011

  Actual Average Record
Temperature  
Mean Temperature 67 °F -  
Max Temperature 82 °F 67 °F 86 °F (2007)
Min Temperature 52 °F 49 °F 32 °F (2001)
Cooling Degree Days 2    
Growing Degree Days 17 (Base 50)    
Moisture  
Dew Point 53 °F    
Average Humidity 63    
Maximum Humidity 93    
Minimum Humidity 38    
Precipitation  
Precipitation 0.00 in - - ()
Sea Level Pressure  
Sea Level Pressure 29.89 in    
Wind  
Wind Speed 3 mph (North)    
Max Wind Speed 10 mph    
Max Gust Speed -    
Visibility 10 miles    
Events      
Averages and records for this station are not official NWS values.
T = Trace of Precipitation, MM = Missing Value Source: NWS Daily Summary

Daily Weather History Graph

Daily Weather History Graph

Search for Another Location

Airport or City:

Trip Planner

Search our weather history database for the weather conditions in past years. The results will help you decide how hot, cold, wet, or windy it might be!

Date:

Astronomy

Oct. 17, 2011 Rise Set
Actual Time 6:54 AM CDT 6:07 PM CDT
Civil Twilight 6:28 AM CDT 6:33 PM CDT
Nautical Twilight 5:58 AM CDT 7:03 PM CDT
Astronomical Twilight 5:29 AM CDT 7:33 PM CDT
Moon 9:55 PM CDT (10/17) 11:52 AM CDT (10/17)
Length of Visible Light 12h 05m
Length of Day
11h 13m
Waning Gibbous, 74% of the Moon is Illuminated
Oct 17
Waning Gibbous
Oct 19
Last Quarter
Oct 26
New
Nov 2
First Quarter
Nov 10
Full

Hourly Weather History & Observations

Time (CDT) Temp. Heat Index Dew Point Humidity Pressure Visibility Wind Dir Wind Speed Gust Speed Precip Events Conditions
1:56 AM 64.9 °F - 50.0 °F 58% 29.93 in 10.0 mi SSW 6.9 mph - N/A   Clear
2:56 AM 59.9 °F - 48.9 °F 67% 29.95 in 10.0 mi North 10.4 mph - N/A   Clear
3:56 AM 54.9 °F - 50.9 °F 86% 29.96 in 10.0 mi Calm Calm - N/A   Clear
4:56 AM 54.9 °F - 50.0 °F 84% 29.95 in 10.0 mi Calm Calm - N/A   Clear
5:56 AM 54.9 °F - 48.9 °F 80% 29.96 in 10.0 mi Calm Calm - N/A   Clear
6:56 AM 52.0 °F - 48.9 °F 89% 29.97 in 10.0 mi Calm Calm - N/A   Clear
7:56 AM 56.8 °F - 52.9 °F 87% 29.97 in 10.0 mi Calm Calm - N/A   Clear
8:56 AM 63.0 °F - 50.9 °F 65% 29.97 in 10.0 mi NNE 4.6 mph - N/A   Clear
9:56 AM 68.9 °F - 50.9 °F 53% 29.96 in 10.0 mi Calm Calm - N/A   Clear
10:56 AM 73.9 °F - 52.0 °F 46% 29.95 in 10.0 mi Calm Calm - N/A   Clear
11:56 AM 77.9 °F - 52.9 °F 42% 29.92 in 10.0 mi Calm Calm - N/A   Clear
12:56 PM 81.0 °F 80.5 °F 54.0 °F 39% 29.89 in 10.0 mi Calm Calm - N/A   Clear
1:56 PM 82.9 °F 82.0 °F 54.9 °F 38% 29.86 in 10.0 mi NNE 5.8 mph - N/A   Clear
2:56 PM 82.9 °F 82.0 °F 54.9 °F 38% 29.84 in 10.0 mi NNE 6.9 mph - N/A   Clear
3:56 PM 82.9 °F 82.0 °F 54.9 °F 38% 29.83 in 10.0 mi North 5.8 mph - N/A   Clear
4:56 PM 81.0 °F 80.7 °F 54.9 °F 41% 29.82 in 10.0 mi North 5.8 mph - N/A   Clear
5:56 PM 74.8 °F - 56.8 °F 53% 29.82 in 10.0 mi Calm Calm - N/A   Clear
6:56 PM 66.9 °F - 55.9 °F 68% 29.83 in 10.0 mi Calm Calm - N/A   Clear
8:56 PM 61.0 °F - 54.9 °F 80% 29.82 in 10.0 mi Calm Calm - N/A   Clear
10:56 PM 59.0 °F - 54.0 °F 83% 29.81 in 10.0 mi Calm Calm - N/A   Clear
11:56 PM 56.8 °F - 54.9 °F 93% 29.78 in 10.0 mi South 5.8 mph - N/A   Clear